Preview of NWS' New Version of Forecast
This preview is not operational and should not be used for support decisions.

Regional Weather Roundup (RWR)

Issued by National Weather Service (NWS)

                            
000
ASUS43 KDTX 171801
RWRMI 
MICHIGAN HOURLY REGIONAL WEATHER ROUNDUP
NATIONAL WEATHER SERVICE DETROIT/PONTIAC MI
200 PM EDT WED APR 17 2019

NOTE: "FAIR" INDICATES FEW OR NO CLOUDS BELOW 12,000 FEET WITH NO
SIGNIFICANT WEATHER AND/OR OBSTRUCTION TO VISIBILITY.

MIZ047>049-052>055-059>063-066>070-074>076-081>083-171900-
SOUTHEAST LOWER MICHIGAN
  
CITY           SKY/WX    TMP DP  RH WIND       PRES   REMARKS
ADRIAN         FAIR      53  42  66 SE14      29.98F                  
6HR MIN TEMP:  45; 6HR MAX TEMP:  53;                                

ALMA           CLOUDY    52  46  78 E14       29.98F                  
6HR MIN TEMP:  41; 6HR MAX TEMP:  52;                                

ANN ARBOR      PTSUNNY   55  44  66 E9        29.98F                  
BAD AXE        FAIR      53  35  51 SE9G16    30.04F                  
6HR MIN TEMP:  36; 6HR MAX TEMP:  53;                                

CARO           PTSUNNY   56  38  51 E10       30.00F                  
DETROIT CITY   PTSUNNY   53  42  66 E14       30.02F                  
6HR MIN TEMP:  43; 6HR MAX TEMP:  53;                                

DETROIT        CLOUDY    55  42  61 E9        30.01F                  
6HR MIN TEMP:  45; 6HR MAX TEMP:  55;                                

FLINT          CLOUDY    55  43  63 E14       29.99F                  
6HR MIN TEMP:  41; 6HR MAX TEMP:  55; 6HR PCP: TRACE;                

GROSSE ILE     CLOUDY    55  44  66 E9        30.00F                  
6HR MIN TEMP:  44; 6HR MAX TEMP:  55;                                

HILLSDALE      FAIR      56  44  64 SE13      29.95F                  
6HR MIN TEMP:  47; 6HR MAX TEMP:  56;                                

HOWELL         CLOUDY    56  43  60 SE13      29.98F                  
6HR MIN TEMP:  44; 6HR MAX TEMP:  56;                                


CITY           SKY/WX    TMP DP  RH WIND       PRES   REMARKS
JACKSON        FAIR      57  46  66 E14       29.94F                  
6HR MIN TEMP:  46; 6HR MAX TEMP:  58;                                

LAMBERTVILLE   FAIR      48  43  83 E12G20    29.99F                  
6HR MIN TEMP:  46; 6HR MAX TEMP:  49;                                

LANSING        PTSUNNY   56  46  69 E13       29.95F                  
6HR MIN TEMP:  43; 6HR MAX TEMP:  57;                                

LAPEER         PTSUNNY   56  44  62 SE7       30.01F                  
6HR MIN TEMP:  39; 6HR MAX TEMP:  56;                                

MASON          PTSUNNY   58  47  65 E14G21    29.94F                  
6HR MIN TEMP:  46; 6HR MAX TEMP:  58;                                

MONROE         PTSUNNY   51  47  85 E15       30.00F                  
6HR MIN TEMP:  46; 6HR MAX TEMP:  52;                                

PONTIAC        CLOUDY    55  43  63 E8        29.98F                  
6HR MIN TEMP:  42; 6HR MAX TEMP:  55;                                

PORT HOPE        N/A     40  33  76 E7        30.05F                  
6HR MIN TEMP:  38; 6HR MAX TEMP:  41;                                

PORT HURON     FAIR      59  41  51 E6        30.02F                  
TRI CITIES     CLOUDY    55  45  68 E12       30.01F                  
6HR MIN TEMP:  40; 6HR MAX TEMP:  55;                                

MIDLAND        CLOUDY    54  42  64 E14       30.00F                  
6HR MIN TEMP:  41; 6HR MAX TEMP:  54;                                

TROY           PTSUNNY   53  40  62 E8        30.03F                  
SAGINAW HB     CLOUDY    59  43  55 E10G16    30.00F                  
$$
MIZ043>046-050>051-056>058-064>065-071>073-077>080-171900-
SOUTHWEST LOWER MICHIGAN
  
CITY           SKY/WX    TMP DP  RH WIND       PRES   REMARKS
BATTLE CREEK   FAIR      60  47  61 SE13G21   29.91F                  
6HR MIN TEMP:  48; 6HR MAX TEMP:  60;                                

BENTON HARBOR  FAIR      64  49  57 SE13      29.85F                  
6HR MIN TEMP:  52; 6HR MAX TEMP:  64;                                

BIG RAPIDS     PTSUNNY   51  44  77 SE16G23   29.94F                  
6HR MIN TEMP:  37; 6HR MAX TEMP:  51;                                

COLDWATER      FAIR      59  48  67 SE12      29.93F                  
6HR MIN TEMP:  49; 6HR MAX TEMP:  59;                                

FREMONT        CLOUDY    48  42  79 E10       29.92F                  
6HR MIN TEMP:  40; 6HR MAX TEMP:  49;                                

HOLLAND        FAIR      55  47  74 E15G23    29.87F                  
6HR MIN TEMP:  45; 6HR MAX TEMP:  55;                                

GRAND RAPIDS   CLOUDY    50  44  80 E18       29.91F                  
6HR MIN TEMP:  42; 6HR MAX TEMP:  51;                                

IONIA          CLOUDY    49  43  80 E16       29.94F                  
6HR MIN TEMP:  41; 6HR MAX TEMP:  49;                                

KALAMAZOO      FAIR      61  47  59 SE12      29.90F                  
6HR MIN TEMP:  50; 6HR MAX TEMP:  61;                                

LUDINGTON      CLOUDY    51  42  71 E10G23    29.87F                  
6HR MIN TEMP:  40; 6HR MAX TEMP:  53;                                

MARSHALL       PTSUNNY   59  48  65 E9        29.92F                  
6HR MIN TEMP:  48; 6HR MAX TEMP:  60;                                

MOUNT PLEASANT PTSUNNY   54  43  66 E14G21    29.97F                  
6HR MIN TEMP:  39; 6HR MAX TEMP:  54;                                

MUSKEGON       FAIR      52  42  69 E18G29    29.88F                  
6HR MIN TEMP:  43; 6HR MAX TEMP:  52;                                

SOUTH HAVEN    FAIR      62  47  58 SE15G22   29.84F                  
$$
MIZ016>042-171900-
NORTHERN LOWER MICHIGAN
  
CITY           SKY/WX    TMP DP  RH WIND       PRES   REMARKS
ALPENA         FAIR      47  22  37 E14       30.07F                  
6HR MIN TEMP:  31; 6HR MAX TEMP:  49;                                

BEAVER ISLAND  FAIR      49  36  61 E12G17    29.99F                  
6HR MIN TEMP:  34; 6HR MAX TEMP:  49;                                

BELLAIRE       FAIR      56  37  49 SE10      29.97F                  
6HR MIN TEMP:  32; 6HR MAX TEMP:  56;                                

CADILLAC       FAIR      53  43  68 E17G24    29.95F                  
CHARLEVOIX     FAIR      50  37  60 E15       30.00F                  
6HR MIN TEMP:  34; 6HR MAX TEMP:  50;                                

FRANKFORT      PTSUNNY   59  38  46 E10G17    29.90F                  
GAYLORD        FAIR      52  36  54 SE12G20   29.98F                  
6HR MIN TEMP:  31; 6HR MAX TEMP:  53;                                

GRAYLING       FAIR      56  37  50 SE15      29.97F                  
6HR MIN TEMP:  36; 6HR MAX TEMP:  56;                                

HARBOR SPRINGS FAIR      52  37  57 E13       29.99F                  
HOUGHTON LAKE  PTSUNNY   55  34  45 SE13G22   29.99F                  
6HR MIN TEMP:  36; 6HR MAX TEMP:  56;                                

MANISTEE       CLOUDY    53  42  66 E21G29    29.86F                  
OSCODA         FAIR      45  28  50 E8        30.06F                  
6HR MIN TEMP:  36; 6HR MAX TEMP:  45;                                

PELLSTON       FAIR      52  38  58 E13G23    30.01F                  
6HR MIN TEMP:  28; 6HR MAX TEMP:  52;                                

ROGERS CITY    FAIR      47  34  61 E13       30.07F                  
TRAVERSE CITY  CLOUDY    56  41  57 SE10G25   29.95F                  
6HR MIN TEMP:  37; 6HR MAX TEMP:  56;                                

$$
MIZ007>008-015-171900-
EASTERN UPPER MICHIGAN
  
CITY           SKY/WX    TMP DP  RH WIND       PRES   REMARKS
KINROSS        FAIR      48  33  56 SE18      30.05F                  
6HR MIN TEMP:  32; 6HR MAX TEMP:  49;                                

MACKINAC ISLAN FOG       36  36 100 E14G22    30.04F VSB 3/4 WCI  27  
6HR MIN TEMP:  34; 6HR MAX TEMP:  38;                                

NEWBERRY       FAIR      50  34  53 SE14      29.99F                  
6HR MIN TEMP:  32; 6HR MAX TEMP:  50;                                

S. S. MARIE    FAIR      48  31  51 SE13G21   30.05F                  
6HR MIN TEMP:  32; 6HR MAX TEMP:  48;                                

MUNISING         N/A     58  25  28 SE9G18    29.94F                  
6HR MIN TEMP:  37; 6HR MAX TEMP:  59;                                

$$
MIZ004>006-011>014-085-171900-
CENTRAL UPPER MICHIGAN
  
CITY           SKY/WX    TMP DP  RH WIND       PRES   REMARKS
MANISTIQUE     FAIR      46  30  52 E13G20    29.98F                  
6HR MIN TEMP:  37; 6HR MAX TEMP:  48;                                

ESCANABA       FAIR      44  35  70 E17       29.96F                  
6HR MIN TEMP:  30; 6HR MAX TEMP:  47;                                

MENOMINEE      CLOUDY    44  37  76 E15       29.92F                  
6HR MIN TEMP:  34; 6HR MAX TEMP:  46;                                

SAWYER-GWINN   SUNNY     55  28  35 SE15      29.91F                  
$$
MIZ001>003-009>011-084-171900-
WESTERN UPPER MICHIGAN
  
CITY           SKY/WX    TMP DP  RH WIND       PRES   REMARKS
IRON MOUNTAIN  PTSUNNY   54  26  34 E16G23    29.89F                  
6HR MIN TEMP:  31; 6HR MAX TEMP:  56;                                

HOUGHTON       FAIR      53  34  48 E10       29.89F                  
6HR MIN TEMP:  40; 6HR MAX TEMP:  53;                                

COPPER HARBOR    N/A     50  37  61 VRB3      29.93F                  
6HR MIN TEMP:  41; 6HR MAX TEMP:  52;                                

IRONWOOD       CLOUDY    57  33  40 SE13      29.84F                  
6HR MIN TEMP:  45; 6HR MAX TEMP:  57;                                

$$

ABBREVIATIONS USED IN REMARKS
   TC - TEMPERATURE IN CELSIUS
  WCI - WIND CHILL INDEX
   HX - HEAT INDEX
  VSB - VISIBILITY